Powrót do katalogu

STARLINK-1020

AktywnyŁącznośćVLEO
NORAD 44725·PAYLOAD·🇺🇸 United States

Wystrzelony Nov 11, 2019 z Cape Canaveral Space Force Station

Loading…

Następne Przeloty (najbliższe 24 godziny)

TLE

ŚwieżeSource: CelesTrak SupGP

Epoka: Sep 14, 2026, 20:15 UTC

1 44725C 19074N   26257.84423611  .00067634  00000+0  57054-3 0  2570
2 44725  53.1508  15.3161 0001850 358.2795  34.0273 15.69099164    16

Śledź STARLINK-1020 w czasie rzeczywistym z AllMySat

Download on the App Store